Time,TemperatureF,DewpointF,PressureIn,WindDirection,WindDirectionDegrees,WindSpeedMPH,WindSpeedGustMPH,Humidity,HourlyPrecipIn,Conditions,Clouds,dailyrainin,SoftwareType,DateUTC
2013-09-27 00:05:00,60.4,41.7,29.47,WNW,287,0.0,0.0,50,0.00,,,0.00,VWS V14.01,2013-09-27 04:05:00,
2013-09-27 00:20:00,60.1,41.4,29.47,ENE,60,0.0,0.0,50,0.00,,,0.00,VWS V14.01,2013-09-27 04:20:00,
2013-09-27 00:35:00,59.7,41.6,29.47,ENE,60,0.0,0.0,51,0.00,,,0.00,VWS V14.01,2013-09-27 04:35:00,
2013-09-27 00:50:00,59.7,42.1,29.47,ENE,60,0.0,0.0,52,0.00,,,0.00,VWS V14.01,2013-09-27 04:50:00,
2013-09-27 01:05:00,59.5,42.4,29.47,ENE,60,0.0,0.0,53,0.00,,,0.00,VWS V14.01,2013-09-27 05:05:00,
2013-09-27 01:20:00,59.4,42.7,29.47,ENE,60,0.0,0.0,54,0.00,,,0.00,VWS V14.01,2013-09-27 05:20:00,
2013-09-27 01:35:00,59.7,43.5,29.47,SSE,161,0.0,0.0,55,0.00,,,0.00,VWS V14.01,2013-09-27 05:35:00,
2013-09-27 01:50:00,59.4,44.1,29.47,SSE,161,0.0,0.0,57,0.00,,,0.00,VWS V14.01,2013-09-27 05:50:00,
2013-09-27 02:05:00,59.4,44.1,29.47,SSE,148,0.0,0.0,57,0.00,,,0.00,VWS V14.01,2013-09-27 06:05:00,
2013-09-27 02:20:00,59.2,44.4,29.47,SSE,165,0.0,0.0,58,0.00,,,0.00,VWS V14.01,2013-09-27 06:20:00,
2013-09-27 02:35:00,59.0,44.3,29.47,SSE,165,0.0,0.0,58,0.00,,,0.00,VWS V14.01,2013-09-27 06:35:00,
2013-09-27 02:50:00,58.8,44.5,29.47,SSE,165,0.0,0.0,59,0.00,,,0.00,VWS V14.01,2013-09-27 06:50:00,
2013-09-27 03:05:00,58.8,44.5,29.47,North,8,0.0,0.0,59,0.00,,,0.00,VWS V14.01,2013-09-27 07:05:00,
2013-09-27 03:20:00,58.6,43.5,29.47,NW,325,0.0,0.0,57,0.00,,,0.00,VWS V14.01,2013-09-27 07:20:00,
2013-09-27 03:35:00,58.3,42.2,29.47,NW,316,0.0,0.0,55,0.00,,,0.00,VWS V14.01,2013-09-27 07:35:00,
2013-09-27 03:50:00,57.9,40.9,29.47,NW,316,0.0,0.0,53,0.00,,,0.00,VWS V14.01,2013-09-27 07:50:00,
2013-09-27 04:05:00,57.6,39.6,29.47,NNW,343,0.0,0.0,51,0.00,,,0.00,VWS V14.01,2013-09-27 08:05:00,
2013-09-27 04:20:00,57.6,39.1,29.47,North,357,0.0,0.0,50,0.00,,,0.00,VWS V14.01,2013-09-27 08:20:00,
2013-09-27 04:35:00,57.2,38.2,29.47,NNW,331,0.0,0.0,49,0.00,,,0.00,VWS V14.01,2013-09-27 08:35:00,
2013-09-27 04:50:00,57.2,38.2,29.47,NNW,333,0.0,0.0,49,0.00,,,0.00,VWS V14.01,2013-09-27 08:50:00,
2013-09-27 05:05:00,57.2,38.8,29.47,NNW,333,0.0,0.0,50,0.00,,,0.00,VWS V14.01,2013-09-27 09:05:00,
2013-09-27 05:20:00,57.2,38.8,29.50,NNW,333,0.0,0.0,50,0.00,,,0.00,VWS V14.01,2013-09-27 09:20:00,
2013-09-27 05:35:00,57.0,38.6,29.50,NNW,333,0.0,0.0,50,0.00,,,0.00,VWS V14.01,2013-09-27 09:35:00,
2013-09-27 05:50:00,57.0,38.6,29.50,NNW,333,0.0,0.0,50,0.00,,,0.00,VWS V14.01,2013-09-27 09:50:00,
2013-09-27 06:05:00,56.8,38.4,29.50,NW,310,0.0,0.0,50,0.00,,,0.00,VWS V14.01,2013-09-27 10:05:00,
2013-09-27 06:20:00,56.8,38.4,29.50,NW,314,0.0,0.0,50,0.00,,,0.00,VWS V14.01,2013-09-27 10:20:00,
2013-09-27 06:35:00,56.7,37.7,29.50,NW,309,0.0,0.0,49,0.00,,,0.00,VWS V14.01,2013-09-27 10:35:00,
2013-09-27 06:50:00,56.7,37.7,29.50,NW,308,0.0,0.0,49,0.00,,,0.00,VWS V14.01,2013-09-27 10:50:00,
2013-09-27 07:05:00,56.7,37.7,29.53,NW,322,0.0,0.0,49,0.00,,,0.00,VWS V14.01,2013-09-27 11:05:00,
2013-09-27 07:20:00,56.5,37.6,29.53,NW,322,0.0,0.0,49,0.00,,,0.00,VWS V14.01,2013-09-27 11:20:00,
2013-09-27 07:35:00,56.3,36.9,29.53,NW,322,0.0,0.0,48,0.00,,,0.00,VWS V14.01,2013-09-27 11:35:00,
2013-09-27 07:50:00,56.1,36.7,29.53,NW,307,0.0,0.0,48,0.00,,,0.00,VWS V14.01,2013-09-27 11:50:00,
2013-09-27 08:05:00,56.1,36.7,29.53,NNW,329,0.0,0.0,48,0.00,,,0.00,VWS V14.01,2013-09-27 12:05:00,
2013-09-27 08:20:00,56.1,36.7,29.53,WNW,292,0.0,0.0,48,0.00,,,0.00,VWS V14.01,2013-09-27 12:20:00,
2013-09-27 08:35:00,56.3,36.9,29.56,NW,326,0.0,0.0,48,0.00,,,0.00,VWS V14.01,2013-09-27 12:35:00,
2013-09-27 08:50:00,56.5,36.5,29.56,NW,319,0.0,0.0,47,0.00,,,0.00,VWS V14.01,2013-09-27 12:50:00,
2013-09-27 09:05:00,56.7,36.7,29.56,NW,312,0.0,0.0,47,0.00,,,0.00,VWS V14.01,2013-09-27 13:05:00,
2013-09-27 09:20:00,57.6,38.6,29.56,NW,314,0.0,0.0,49,0.00,,,0.00,VWS V14.01,2013-09-27 13:20:00,
2013-09-27 09:35:00,59.9,39.6,29.56,NW,315,0.0,0.0,47,0.00,,,0.00,VWS V14.01,2013-09-27 13:35:00,
2013-09-27 09:50:00,61.3,38.1,29.56,NNW,341,0.0,0.0,42,0.00,,,0.00,VWS V14.01,2013-09-27 13:50:00,
2013-09-27 10:05:00,61.7,34.5,29.56,NW,325,0.0,0.0,36,0.00,,,0.00,VWS V14.01,2013-09-27 14:05:00,
2013-09-27 10:20:00,63.0,34.2,29.56,NNW,339,0.0,0.0,34,0.00,,,0.00,VWS V14.01,2013-09-27 14:20:00,
2013-09-27 10:35:00,65.1,31.2,29.56,North,353,0.0,0.0,28,0.00,,,0.00,VWS V14.01,2013-09-27 14:35:00,
2013-09-27 10:50:00,66.0,29.2,29.56,NNW,334,0.0,0.0,25,0.00,,,0.00,VWS V14.01,2013-09-27 14:50:00,
2013-09-27 11:05:00,67.5,29.4,29.56,ENE,78,0.0,0.0,24,0.00,,,0.00,VWS V14.01,2013-09-27 15:05:00,
2013-09-27 11:20:00,69.1,29.8,29.56,NE,36,0.0,0.0,23,0.00,,,0.00,VWS V14.01,2013-09-27 15:20:00,
2013-09-27 11:35:00,70.9,30.2,29.56,NNE,32,0.0,0.0,22,0.00,,,0.00,VWS V14.01,2013-09-27 15:35:00,
2013-09-27 11:50:00,71.4,30.6,29.53,North,6,0.0,0.0,22,0.00,,,0.00,VWS V14.01,2013-09-27 15:50:00,
2013-09-27 12:05:00,73.2,31.0,29.53,NNE,19,0.0,0.0,21,0.00,,,0.00,VWS V14.01,2013-09-27 16:05:00,
2013-09-27 12:20:00,74.5,28.2,29.53,North,349,0.0,0.0,18,0.00,,,0.00,VWS V14.01,2013-09-27 16:20:00,
2013-09-27 12:35:00,75.6,29.1,29.53,ENE,78,0.0,0.0,18,0.00,,,0.00,VWS V14.01,2013-09-27 16:35:00,
2013-09-27 12:50:00,76.8,30.1,29.53,East,85,0.0,0.0,18,0.00,,,0.00,VWS V14.01,2013-09-27 16:50:00,
2013-09-27 13:05:00,77.7,30.9,29.53,East,85,0.0,0.0,18,0.00,,,0.00,VWS V14.01,2013-09-27 17:05:00,
2013-09-27 13:20:00,77.9,31.0,29.53,ENE,63,0.0,0.0,18,0.00,,,0.00,VWS V14.01,2013-09-27 17:20:00,
2013-09-27 13:35:00,78.6,31.6,29.50,East,99,0.0,0.0,18,0.00,,,0.00,VWS V14.01,2013-09-27 17:35:00,
2013-09-27 13:50:00,78.4,31.5,29.50,NE,38,0.0,0.0,18,0.00,,,0.00,VWS V14.01,2013-09-27 17:50:00,
2013-09-27 14:05:00,79.0,27.4,29.50,North,0,0.0,0.0,15,0.00,,,0.00,VWS V14.01,2013-09-27 18:05:00,
2013-09-27 14:20:00,79.2,27.6,29.50,ESE,112,0.0,0.0,15,0.00,,,0.00,VWS V14.01,2013-09-27 18:20:00,
2013-09-27 14:35:00,79.5,27.9,29.50,East,86,0.0,0.0,15,0.00,,,0.00,VWS V14.01,2013-09-27 18:35:00,
2013-09-27 14:50:00,80.1,28.3,29.50,North,357,0.0,0.0,15,0.00,,,0.00,VWS V14.01,2013-09-27 18:50:00,
2013-09-27 15:05:00,80.6,27.0,29.47,NW,310,0.0,0.0,14,0.00,,,0.00,VWS V14.01,2013-09-27 19:05:00,
2013-09-27 15:20:00,79.3,27.7,29.47,NW,310,0.0,0.0,15,0.00,,,0.00,VWS V14.01,2013-09-27 19:20:00,
2013-09-27 15:35:00,78.3,26.9,29.47,WNW,300,0.0,0.0,15,0.00,,,0.00,VWS V14.01,2013-09-27 19:35:00,
2013-09-27 15:50:00,75.0,25.8,29.47,NW,307,0.0,0.0,16,0.00,,,0.00,VWS V14.01,2013-09-27 19:50:00,
2013-09-27 16:05:00,72.9,24.1,29.47,WNW,297,0.0,0.0,16,0.00,,,0.00,VWS V14.01,2013-09-27 20:05:00,
2013-09-27 16:20:00,73.2,24.4,29.47,WNW,297,0.0,0.0,16,0.00,,,0.00,VWS V14.01,2013-09-27 20:20:00,
2013-09-27 16:35:00,72.1,23.5,29.47,NW,304,0.0,0.0,16,0.00,,,0.00,VWS V14.01,2013-09-27 20:35:00,
2013-09-27 16:50:00,70.9,23.9,29.47,WNW,303,0.0,0.0,17,0.00,,,0.00,VWS V14.01,2013-09-27 20:50:00,
2013-09-27 17:05:00,70.9,23.9,29.47,WNW,300,0.0,0.0,17,0.00,,,0.00,VWS V14.01,2013-09-27 21:05:00,
2013-09-27 17:20:00,70.3,23.5,29.47,WNW,302,0.0,0.0,17,0.00,,,0.00,VWS V14.01,2013-09-27 21:20:00,
2013-09-27 17:35:00,69.8,25.7,29.47,NW,308,0.0,0.0,19,0.00,,,0.00,VWS V14.01,2013-09-27 21:35:00,
2013-09-27 17:50:00,69.3,26.5,29.47,NW,308,0.0,0.0,20,0.00,,,0.00,VWS V14.01,2013-09-27 21:50:00,
2013-09-27 18:05:00,68.4,25.8,29.47,NW,308,0.0,0.0,20,0.00,,,0.00,VWS V14.01,2013-09-27 22:05:00,
2013-09-27 18:20:00,67.6,25.2,29.47,WNW,299,0.0,0.0,20,0.00,,,0.00,VWS V14.01,2013-09-27 22:20:00,
2013-09-27 18:35:00,66.7,26.7,29.47,WNW,299,0.0,0.0,22,0.00,,,0.00,VWS V14.01,2013-09-27 22:35:00,
2013-09-27 18:50:00,66.2,26.3,29.50,WNW,299,0.0,0.0,22,0.00,,,0.00,VWS V14.01,2013-09-27 22:50:00,
2013-09-27 19:05:00,64.9,26.3,29.50,WNW,299,0.0,0.0,23,0.00,,,0.00,VWS V14.01,2013-09-27 23:05:00,
2013-09-27 19:20:00,64.2,26.7,29.50,WNW,299,0.0,0.0,24,0.00,,,0.00,VWS V14.01,2013-09-27 23:20:00,
2013-09-27 19:35:00,63.7,26.2,29.50,WNW,299,0.0,0.0,24,0.00,,,0.00,VWS V14.01,2013-09-27 23:35:00,
2013-09-27 19:50:00,63.0,25.6,29.50,WNW,299,0.0,0.0,24,0.00,,,0.00,VWS V14.01,2013-09-27 23:50:00,
2013-09-27 20:05:00,62.2,27.0,29.50,WNW,299,0.0,0.0,26,0.00,,,0.00,VWS V14.01,2013-09-28 00:05:00,
2013-09-27 20:20:00,61.7,27.4,29.50,WNW,299,0.0,0.0,27,0.00,,,0.00,VWS V14.01,2013-09-28 00:20:00,
2013-09-27 20:35:00,61.3,28.8,29.50,WNW,299,0.0,0.0,29,0.00,,,0.00,VWS V14.01,2013-09-28 00:35:00,
2013-09-27 20:50:00,60.8,30.0,29.53,WNW,299,0.0,0.0,31,0.00,,,0.00,VWS V14.01,2013-09-28 00:50:00,
2013-09-27 21:05:00,60.3,31.8,29.53,WNW,299,0.0,0.0,34,0.00,,,0.00,VWS V14.01,2013-09-28 01:05:00,
2013-09-27 21:20:00,59.9,32.2,29.53,WNW,299,0.0,0.0,35,0.00,,,0.00,VWS V14.01,2013-09-28 01:20:00,
2013-09-27 21:35:00,59.7,32.0,29.53,WNW,299,0.0,0.0,35,0.00,,,0.00,VWS V14.01,2013-09-28 01:35:00,
2013-09-27 21:50:00,59.4,32.4,29.53,WNW,299,0.0,0.0,36,0.00,,,0.00,VWS V14.01,2013-09-28 01:50:00,
2013-09-27 22:05:00,59.0,32.8,29.53,WNW,299,0.0,0.0,37,0.00,,,0.00,VWS V14.01,2013-09-28 02:05:00,
2013-09-27 22:20:00,58.8,33.9,29.56,WNW,299,0.0,0.0,39,0.00,,,0.00,VWS V14.01,2013-09-28 02:20:00,
2013-09-27 22:35:00,58.5,34.9,29.56,WNW,299,0.0,0.0,41,0.00,,,0.00,VWS V14.01,2013-09-28 02:35:00,
2013-09-27 22:50:00,58.3,35.3,29.56,WNW,299,0.0,0.0,42,0.00,,,0.00,VWS V14.01,2013-09-28 02:50:00,
2013-09-27 23:05:00,57.9,36.2,29.56,WNW,299,0.0,0.0,44,0.00,,,0.00,VWS V14.01,2013-09-28 03:05:00,
2013-09-27 23:20:00,57.7,36.6,29.56,WNW,299,0.0,0.0,45,0.00,,,0.00,VWS V14.01,2013-09-28 03:20:00,
2013-09-27 23:35:00,57.6,37.0,29.56,WNW,299,0.0,0.0,46,0.00,,,0.00,VWS V14.01,2013-09-28 03:35:00,
2013-09-27 23:50:00,57.6,37.5,29.56,WNW,299,0.0,0.0,47,0.00,,,0.00,VWS V14.01,2013-09-28 03:50:00,